Time,TemperatureF,DewpointF,PressureIn,WindDirection,WindDirectionDegrees,WindSpeedMPH,WindSpeedGustMPH,Humidity,HourlyPrecipIn,Conditions,Clouds,dailyrainin,SoftwareType,DateUTC
2013-02-17 00:00:00,27.4,28.0,29.74,North,0,11.2,20.5,97,0.00,,,0.00,Rainwise IP-100,2013-02-17 05:00:00,
2013-02-17 00:05:00,27.3,28.0,29.71,NNW,337,15.6,18.4,97,0.00,,,0.00,Rainwise IP-100,2013-02-17 05:05:00,
2013-02-17 00:10:00,27.2,28.0,29.70,NNW,337,17.0,19.1,97,0.00,,,0.00,Rainwise IP-100,2013-02-17 05:10:00,
2013-02-17 00:15:00,27.0,28.0,29.71,NNW,337,11.7,21.0,97,0.00,,,0.00,Rainwise IP-100,2013-02-17 05:15:00,
2013-02-17 00:20:00,26.9,28.0,29.73,NNW,337,15.6,19.6,97,0.00,,,0.00,Rainwise IP-100,2013-02-17 05:20:00,
2013-02-17 00:25:00,26.9,28.0,29.72,NNW,337,9.3,21.7,97,0.00,,,0.00,Rainwise IP-100,2013-02-17 05:25:00,
2013-02-17 00:30:00,26.8,28.0,29.72,NNW,337,14.2,19.8,97,0.00,,,0.00,Rainwise IP-100,2013-02-17 05:30:00,
2013-02-17 00:35:00,26.8,28.0,29.71,NNW,337,15.4,18.2,97,0.00,,,0.00,Rainwise IP-100,2013-02-17 05:35:00,
2013-02-17 00:40:00,26.8,26.0,29.71,NNW,337,7.0,20.3,96,0.00,,,0.00,Rainwise IP-100,2013-02-17 05:40:00,
2013-02-17 00:45:00,26.7,26.0,29.68,NNW,337,9.8,19.1,96,0.00,,,0.00,Rainwise IP-100,2013-02-17 05:45:00,
2013-02-17 00:50:00,26.7,26.0,29.71,NNW,337,9.6,21.0,95,0.00,,,0.00,Rainwise IP-100,2013-02-17 05:50:00,
2013-02-17 00:55:00,26.7,26.0,29.67,ENE,67,9.1,21.9,95,0.00,,,0.00,Rainwise IP-100,2013-02-17 05:55:00,
2013-02-17 01:00:00,26.7,26.0,29.69,NNE,22,9.3,22.9,94,0.00,,,0.00,Rainwise IP-100,2013-02-17 06:00:00,
2013-02-17 01:05:00,26.7,26.0,29.68,NNW,337,11.0,17.3,94,0.00,,,0.00,Rainwise IP-100,2013-02-17 06:05:00,
2013-02-17 01:10:00,26.5,26.0,29.66,North,0,14.5,20.3,94,0.00,,,0.00,Rainwise IP-100,2013-02-17 06:10:00,
2013-02-17 01:15:00,26.4,24.0,29.68,NNW,337,8.4,21.7,94,0.00,,,0.00,Rainwise IP-100,2013-02-17 06:15:00,
2013-02-17 01:20:00,26.4,24.0,29.66,North,0,4.0,20.3,93,0.00,,,0.00,Rainwise IP-100,2013-02-17 06:20:00,
2013-02-17 01:25:00,26.4,24.0,29.66,North,0,12.1,19.6,93,0.00,,,0.00,Rainwise IP-100,2013-02-17 06:25:00,
2013-02-17 01:30:00,26.4,24.0,29.64,NNE,22,9.6,21.9,93,0.00,,,0.00,Rainwise IP-100,2013-02-17 06:30:00,
2013-02-17 01:35:00,26.4,24.0,29.66,NNE,22,4.4,20.8,92,0.00,,,0.00,Rainwise IP-100,2013-02-17 06:35:00,
2013-02-17 01:40:00,26.4,24.0,29.63,North,0,15.2,21.2,92,0.00,,,0.00,Rainwise IP-100,2013-02-17 06:40:00,
2013-02-17 01:45:00,26.4,24.0,29.65,NNW,337,10.5,19.6,92,0.00,,,0.00,Rainwise IP-100,2013-02-17 06:45:00,
2013-02-17 01:50:00,26.4,24.0,29.63,NNE,22,13.1,23.1,92,0.00,,,0.00,Rainwise IP-100,2013-02-17 06:50:00,
2013-02-17 01:55:00,26.4,24.0,29.60,North,0,10.7,17.7,92,0.00,,,0.00,Rainwise IP-100,2013-02-17 06:55:00,
2013-02-17 02:00:00,26.3,24.0,29.64,North,0,15.2,18.0,92,0.00,,,0.00,Rainwise IP-100,2013-02-17 07:00:00,
2013-02-17 02:05:00,26.3,24.0,29.64,North,0,8.9,21.9,92,0.00,,,0.00,Rainwise IP-100,2013-02-17 07:05:00,
2013-02-17 02:10:00,26.3,24.0,29.64,North,0,15.4,18.9,92,0.00,,,0.00,Rainwise IP-100,2013-02-17 07:10:00,
2013-02-17 02:15:00,26.3,24.0,29.66,NNW,337,14.7,16.8,92,0.00,,,0.00,Rainwise IP-100,2013-02-17 07:15:00,
2013-02-17 02:20:00,26.3,24.0,29.63,NNE,22,6.3,14.7,92,0.00,,,0.00,Rainwise IP-100,2013-02-17 07:20:00,
2013-02-17 02:25:00,26.2,24.0,29.63,NNW,337,16.3,16.3,92,0.00,,,0.00,Rainwise IP-100,2013-02-17 07:25:00,
2013-02-17 02:30:00,26.2,24.0,29.62,NNE,22,9.8,20.1,92,0.00,,,0.00,Rainwise IP-100,2013-02-17 07:30:00,
2013-02-17 02:35:00,26.0,24.0,29.63,NW,315,9.8,20.3,92,0.00,,,0.00,Rainwise IP-100,2013-02-17 07:35:00,
2013-02-17 02:40:00,26.0,24.0,29.62,NNE,22,16.6,20.1,93,0.00,,,0.00,Rainwise IP-100,2013-02-17 07:40:00,
2013-02-17 02:45:00,26.0,24.0,29.61,North,0,14.9,17.3,94,0.00,,,0.00,Rainwise IP-100,2013-02-17 07:45:00,
2013-02-17 02:50:00,25.9,24.0,29.61,NNW,337,8.9,17.3,94,0.00,,,0.00,Rainwise IP-100,2013-02-17 07:50:00,
2013-02-17 02:55:00,25.8,24.0,29.61,NNE,22,14.9,16.8,95,0.00,,,0.00,Rainwise IP-100,2013-02-17 07:55:00,
2013-02-17 03:00:00,25.7,24.0,29.58,NNW,337,14.9,19.1,96,0.00,,,0.00,Rainwise IP-100,2013-02-17 08:00:00,
2013-02-17 03:05:00,25.6,24.0,29.58,North,0,11.7,20.3,96,0.00,,,0.00,Rainwise IP-100,2013-02-17 08:05:00,
2013-02-17 03:07:00,25.6,24.0,29.58,NNE,22,15.2,23.8,96,0.00,,,0.00,Rainwise IP-100,2013-02-17 08:07:00,
2013-02-17 03:12:00,25.6,24.0,29.57,NNW,337,7.7,21.2,96,0.00,,,0.00,Rainwise IP-100,2013-02-17 08:12:00,
2013-02-17 03:17:00,25.5,24.0,29.59,NE,45,9.6,22.6,96,0.00,,,0.00,Rainwise IP-100,2013-02-17 08:17:00,
2013-02-17 03:22:00,25.3,24.0,29.58,North,0,10.3,22.6,96,0.00,,,0.00,Rainwise IP-100,2013-02-17 08:22:00,
2013-02-17 03:27:00,25.3,24.0,29.58,NNW,337,10.7,17.3,96,0.00,,,0.00,Rainwise IP-100,2013-02-17 08:27:00,
2013-02-17 03:32:00,25.3,24.0,29.58,NNE,22,14.7,19.6,96,0.00,,,0.00,Rainwise IP-100,2013-02-17 08:32:00,
2013-02-17 03:37:00,25.1,24.0,29.57,NNW,337,11.4,20.3,96,0.00,,,0.00,Rainwise IP-100,2013-02-17 08:37:00,
2013-02-17 03:42:00,24.8,24.0,29.59,North,0,11.0,25.4,96,0.00,,,0.00,Rainwise IP-100,2013-02-17 08:42:00,
2013-02-17 03:47:00,24.6,24.0,29.57,NW,315,16.1,28.2,96,0.00,,,0.00,Rainwise IP-100,2013-02-17 08:47:00,
2013-02-17 03:52:00,24.6,24.0,29.56,NW,315,10.3,24.5,96,0.00,,,0.00,Rainwise IP-100,2013-02-17 08:52:00,
2013-02-17 03:57:00,24.5,24.0,29.56,NNE,22,17.5,22.4,95,0.00,,,0.00,Rainwise IP-100,2013-02-17 08:57:00,
2013-02-17 04:02:00,24.4,23.0,29.53,NNW,337,12.8,22.9,95,0.00,,,0.00,Rainwise IP-100,2013-02-17 09:02:00,
2013-02-17 04:07:00,24.3,23.0,29.53,North,0,11.0,22.9,94,0.00,,,0.00,Rainwise IP-100,2013-02-17 09:07:00,
2013-02-17 04:12:00,24.3,23.0,29.55,North,0,10.3,24.5,94,0.00,,,0.00,Rainwise IP-100,2013-02-17 09:12:00,
2013-02-17 04:17:00,24.4,23.0,29.54,NNW,337,11.0,20.1,94,0.00,,,0.00,Rainwise IP-100,2013-02-17 09:17:00,
2013-02-17 04:22:00,24.5,24.0,29.53,North,0,8.6,19.8,94,0.00,,,0.00,Rainwise IP-100,2013-02-17 09:22:00,
2013-02-17 04:27:00,24.5,24.0,29.54,North,0,11.4,20.1,94,0.00,,,0.00,Rainwise IP-100,2013-02-17 09:27:00,
2013-02-17 04:32:00,24.4,23.0,29.55,NE,45,13.3,21.2,93,0.00,,,0.00,Rainwise IP-100,2013-02-17 09:32:00,
2013-02-17 04:37:00,24.4,23.0,29.53,NNE,22,10.3,20.5,93,0.00,,,0.00,Rainwise IP-100,2013-02-17 09:37:00,
2013-02-17 04:42:00,24.3,23.0,29.53,North,0,15.4,19.8,93,0.00,,,0.00,Rainwise IP-100,2013-02-17 09:42:00,
2013-02-17 04:47:00,24.1,23.0,29.53,NNW,337,11.0,19.8,92,0.00,,,0.00,Rainwise IP-100,2013-02-17 09:47:00,
2013-02-17 04:52:00,24.1,23.0,29.56,North,0,11.0,20.5,92,0.00,,,0.00,Rainwise IP-100,2013-02-17 09:52:00,
2013-02-17 04:53:00,24.1,23.0,29.53,NNW,337,11.9,20.5,92,0.00,,,0.00,Rainwise IP-100,2013-02-17 09:53:00,
2013-02-17 04:54:00,24.1,23.0,29.54,NNE,22,19.1,20.5,92,0.00,,,0.00,Rainwise IP-100,2013-02-17 09:54:00,
2013-02-17 05:00:00,24.1,23.0,29.52,NNW,337,8.4,19.1,92,0.00,,,0.00,Rainwise IP-100,2013-02-17 10:00:00,
2013-02-17 05:05:00,24.0,23.0,29.53,North,0,16.6,22.2,92,0.00,,,0.00,Rainwise IP-100,2013-02-17 10:05:00,
2013-02-17 05:10:00,24.0,23.0,29.51,North,0,9.3,21.2,92,0.00,,,0.00,Rainwise IP-100,2013-02-17 10:10:00,
2013-02-17 05:15:00,24.0,23.0,29.53,NNW,337,14.9,20.1,92,0.00,,,0.00,Rainwise IP-100,2013-02-17 10:15:00,
2013-02-17 05:20:00,23.9,23.0,29.51,NE,45,16.1,21.7,91,0.00,,,0.00,Rainwise IP-100,2013-02-17 10:20:00,
2013-02-17 05:25:00,23.9,23.0,29.51,NNW,337,16.8,20.3,91,0.00,,,0.00,Rainwise IP-100,2013-02-17 10:25:00,
2013-02-17 05:30:00,23.8,23.0,29.45,NNW,337,17.5,22.6,91,0.00,,,0.00,Rainwise IP-100,2013-02-17 10:30:00,
2013-02-17 05:35:00,23.7,23.0,29.46,NNW,337,16.1,24.2,91,0.00,,,0.00,Rainwise IP-100,2013-02-17 10:35:00,
2013-02-17 05:40:00,23.7,23.0,29.49,NW,315,10.5,22.4,91,0.00,,,0.00,Rainwise IP-100,2013-02-17 10:40:00,
2013-02-17 05:45:00,23.7,23.0,29.46,NNW,337,16.6,22.2,91,0.00,,,0.00,Rainwise IP-100,2013-02-17 10:45:00,
2013-02-17 05:50:00,23.7,23.0,29.47,North,0,12.1,22.6,91,0.00,,,0.00,Rainwise IP-100,2013-02-17 10:50:00,
2013-02-17 05:55:00,23.7,23.0,29.48,NNW,337,20.3,26.1,90,0.00,,,0.00,Rainwise IP-100,2013-02-17 10:55:00,
2013-02-17 06:00:00,23.7,23.0,29.46,NNE,22,12.6,22.9,90,0.00,,,0.00,Rainwise IP-100,2013-02-17 11:00:00,
2013-02-17 06:05:00,23.7,23.0,29.45,North,0,14.7,23.6,91,0.00,,,0.00,Rainwise IP-100,2013-02-17 11:05:00,
2013-02-17 06:10:00,23.5,23.0,29.43,NNE,22,18.0,24.9,91,0.00,,,0.00,Rainwise IP-100,2013-02-17 11:10:00,
2013-02-17 06:15:00,23.4,21.0,29.45,NNW,337,11.7,23.8,91,0.00,,,0.00,Rainwise IP-100,2013-02-17 11:15:00,
2013-02-17 06:20:00,23.3,21.0,29.46,NNW,337,9.6,22.2,91,0.00,,,0.00,Rainwise IP-100,2013-02-17 11:20:00,
2013-02-17 06:25:00,23.4,21.0,29.43,North,0,12.6,20.1,91,0.00,,,0.00,Rainwise IP-100,2013-02-17 11:25:00,
2013-02-17 06:30:00,23.5,23.0,29.42,NNW,337,10.7,18.4,91,0.00,,,0.00,Rainwise IP-100,2013-02-17 11:30:00,
2013-02-17 06:35:00,23.5,23.0,29.45,NNW,337,6.1,23.1,90,0.00,,,0.00,Rainwise IP-100,2013-02-17 11:35:00,
2013-02-17 06:40:00,23.5,23.0,29.45,NNW,337,13.3,20.8,90,0.00,,,0.00,Rainwise IP-100,2013-02-17 11:40:00,
2013-02-17 06:45:00,23.5,23.0,29.43,NNE,22,18.0,22.4,90,0.00,,,0.00,Rainwise IP-100,2013-02-17 11:45:00,
2013-02-17 06:50:00,23.4,21.0,29.42,NNW,337,10.3,21.7,90,0.00,,,0.00,Rainwise IP-100,2013-02-17 11:50:00,
2013-02-17 06:55:00,23.5,23.0,29.41,North,0,17.5,22.6,90,0.00,,,0.00,Rainwise IP-100,2013-02-17 11:55:00,
2013-02-17 07:00:00,23.3,21.0,29.39,North,0,14.9,25.4,90,0.00,,,0.00,Rainwise IP-100,2013-02-17 12:00:00,
2013-02-17 07:05:00,23.2,21.0,29.40,NNE,22,8.9,24.7,90,0.00,,,0.00,Rainwise IP-100,2013-02-17 12:05:00,
2013-02-17 07:10:00,23.2,21.0,29.40,NNE,22,16.3,24.7,90,0.00,,,0.00,Rainwise IP-100,2013-02-17 12:10:00,
2013-02-17 07:15:00,23.2,21.0,29.37,NNW,337,13.8,23.8,89,0.00,,,0.00,Rainwise IP-100,2013-02-17 12:15:00,
2013-02-17 07:20:00,23.2,21.0,29.35,NNW,337,15.2,25.6,90,0.00,,,0.00,Rainwise IP-100,2013-02-17 12:20:00,
2013-02-17 07:25:00,23.2,21.0,29.39,North,0,12.8,23.8,90,0.00,,,0.00,Rainwise IP-100,2013-02-17 12:25:00,
2013-02-17 07:30:00,23.0,21.0,29.38,NNW,337,13.8,23.6,89,0.00,,,0.00,Rainwise IP-100,2013-02-17 12:30:00,
2013-02-17 07:35:00,23.0,21.0,29.36,North,0,13.8,24.7,89,0.00,,,0.00,Rainwise IP-100,2013-02-17 12:35:00,
2013-02-17 07:40:00,23.0,21.0,29.36,NNE,22,18.7,25.9,89,0.00,,,0.00,Rainwise IP-100,2013-02-17 12:40:00,
2013-02-17 07:45:00,23.0,21.0,29.38,NNW,337,23.8,24.7,89,0.00,,,0.00,Rainwise IP-100,2013-02-17 12:45:00,
2013-02-17 07:50:00,23.0,21.0,29.35,North,0,20.8,23.8,89,0.00,,,0.00,Rainwise IP-100,2013-02-17 12:50:00,
2013-02-17 07:55:00,23.1,21.0,29.35,NNW,337,18.2,24.0,89,0.00,,,0.00,Rainwise IP-100,2013-02-17 12:55:00,
2013-02-17 08:00:00,23.2,21.0,29.33,NNW,337,11.2,24.2,89,0.00,,,0.00,Rainwise IP-100,2013-02-17 13:00:00,
2013-02-17 08:05:00,23.2,21.0,29.36,North,0,13.5,27.3,89,0.00,,,0.00,Rainwise IP-100,2013-02-17 13:05:00,
2013-02-17 08:10:00,23.2,21.0,29.35,North,0,10.5,20.8,89,0.00,,,0.00,Rainwise IP-100,2013-02-17 13:10:00,
2013-02-17 08:15:00,23.1,21.0,29.31,NNE,22,16.1,22.9,89,0.00,,,0.00,Rainwise IP-100,2013-02-17 13:15:00,
2013-02-17 08:20:00,23.0,21.0,29.33,NNE,22,11.9,26.3,90,0.00,,,0.00,Rainwise IP-100,2013-02-17 13:20:00,
2013-02-17 08:25:00,22.9,21.0,29.31,NNE,22,10.3,26.3,90,0.00,,,0.00,Rainwise IP-100,2013-02-17 13:25:00,
2013-02-17 08:30:00,22.8,21.0,29.29,NNE,22,11.4,25.4,91,0.00,,,0.00,Rainwise IP-100,2013-02-17 13:30:00,
2013-02-17 08:35:00,22.7,21.0,29.30,NNW,337,17.3,24.9,92,0.00,,,0.00,Rainwise IP-100,2013-02-17 13:35:00,
2013-02-17 08:40:00,22.7,21.0,29.31,North,0,15.6,25.2,93,0.00,,,0.00,Rainwise IP-100,2013-02-17 13:40:00,
2013-02-17 08:45:00,22.6,21.0,29.25,North,0,14.0,27.3,94,0.00,,,0.00,Rainwise IP-100,2013-02-17 13:45:00,
2013-02-17 08:50:00,22.5,21.0,29.27,NNW,337,15.9,24.7,93,0.00,,,0.00,Rainwise IP-100,2013-02-17 13:50:00,
2013-02-17 08:55:00,22.4,21.0,29.27,NNW,337,14.5,27.3,93,0.00,,,0.00,Rainwise IP-100,2013-02-17 13:55:00,
2013-02-17 09:00:00,22.4,21.0,29.23,NNE,22,14.9,24.7,93,0.00,,,0.00,Rainwise IP-100,2013-02-17 14:00:00,
2013-02-17 09:05:00,22.4,21.0,29.24,NNW,337,19.4,27.0,93,0.00,,,0.00,Rainwise IP-100,2013-02-17 14:05:00,
2013-02-17 09:10:00,22.4,21.0,29.23,NNW,337,13.8,26.6,93,0.00,,,0.00,Rainwise IP-100,2013-02-17 14:10:00,
2013-02-17 09:15:00,22.5,21.0,29.24,NNW,337,15.2,30.5,93,0.00,,,0.00,Rainwise IP-100,2013-02-17 14:15:00,
2013-02-17 09:20:00,22.7,21.0,29.24,NNW,337,13.1,27.0,93,0.00,,,0.00,Rainwise IP-100,2013-02-17 14:20:00,
2013-02-17 09:25:00,22.8,21.0,29.21,NNE,22,13.3,25.2,93,0.00,,,0.00,Rainwise IP-100,2013-02-17 14:25:00,
2013-02-17 09:30:00,22.9,21.0,29.22,North,0,19.4,28.0,92,0.00,,,0.00,Rainwise IP-100,2013-02-17 14:30:00,
2013-02-17 09:35:00,23.0,21.0,29.23,NNE,22,12.6,26.6,92,0.00,,,0.00,Rainwise IP-100,2013-02-17 14:35:00,
2013-02-17 09:40:00,23.0,21.0,29.21,NNW,337,11.7,25.6,91,0.00,,,0.00,Rainwise IP-100,2013-02-17 14:40:00,
2013-02-17 09:45:00,23.0,21.0,29.21,North,0,20.8,29.6,91,0.00,,,0.00,Rainwise IP-100,2013-02-17 14:45:00,
2013-02-17 09:50:00,23.1,21.0,29.19,NNE,22,20.5,26.1,91,0.00,,,0.00,Rainwise IP-100,2013-02-17 14:50:00,
2013-02-17 09:55:00,23.1,21.0,29.19,NNW,337,15.9,27.3,92,0.00,,,0.00,Rainwise IP-100,2013-02-17 14:55:00,
2013-02-17 10:00:00,23.2,21.0,29.20,NNW,337,12.8,21.9,92,0.00,,,0.00,Rainwise IP-100,2013-02-17 15:00:00,
2013-02-17 10:05:00,23.4,21.0,29.20,North,0,14.7,22.9,92,0.00,,,0.00,Rainwise IP-100,2013-02-17 15:05:00,
2013-02-17 10:10:00,23.4,21.0,29.16,NNW,337,17.5,29.6,92,0.00,,,0.00,Rainwise IP-100,2013-02-17 15:10:00,
2013-02-17 10:15:00,23.3,21.0,29.16,NNE,22,20.1,25.4,92,0.00,,,0.00,Rainwise IP-100,2013-02-17 15:15:00,
2013-02-17 10:20:00,23.4,21.0,29.17,NNW,337,19.4,28.0,92,0.00,,,0.00,Rainwise IP-100,2013-02-17 15:20:00,
2013-02-17 10:25:00,23.4,21.0,29.17,NNW,337,23.6,29.6,92,0.00,,,0.00,Rainwise IP-100,2013-02-17 15:25:00,
2013-02-17 10:30:00,23.5,23.0,29.18,North,0,9.3,31.2,92,0.00,,,0.00,Rainwise IP-100,2013-02-17 15:30:00,
2013-02-17 10:35:00,23.6,23.0,29.15,North,0,22.4,25.2,91,0.00,,,0.00,Rainwise IP-100,2013-02-17 15:35:00,
2013-02-17 10:40:00,23.7,23.0,29.12,NNW,337,26.1,29.8,91,0.00,,,0.00,Rainwise IP-100,2013-02-17 15:40:00,
2013-02-17 10:45:00,23.8,23.0,29.14,NNW,337,13.1,29.1,91,0.00,,,0.00,Rainwise IP-100,2013-02-17 15:45:00,
2013-02-17 10:50:00,23.8,23.0,29.11,NNW,337,17.7,36.1,91,0.00,,,0.00,Rainwise IP-100,2013-02-17 15:50:00,
2013-02-17 10:55:00,23.7,23.0,29.12,NNW,337,17.3,29.6,91,0.00,,,0.00,Rainwise IP-100,2013-02-17 15:55:00,
2013-02-17 11:00:00,23.7,23.0,29.12,NNW,337,15.6,29.6,92,0.00,,,0.00,Rainwise IP-100,2013-02-17 16:00:00,
2013-02-17 11:05:00,23.8,23.0,29.10,NNW,337,28.0,36.8,93,0.00,,,0.00,Rainwise IP-100,2013-02-17 16:05:00,
2013-02-17 11:10:00,23.7,23.0,29.08,North,0,23.3,31.5,93,0.00,,,0.00,Rainwise IP-100,2013-02-17 16:10:00,
2013-02-17 11:15:00,23.5,23.0,29.10,NNW,337,25.6,31.5,93,0.12,,,0.02,Rainwise IP-100,2013-02-17 16:15:00,
2013-02-17 11:20:00,23.3,21.0,29.09,NNE,22,23.3,33.6,93,0.12,,,0.02,Rainwise IP-100,2013-02-17 16:20:00,
2013-02-17 11:25:00,23.0,21.0,29.07,NNW,337,11.4,32.2,93,0.00,,,0.02,Rainwise IP-100,2013-02-17 16:25:00,
2013-02-17 11:30:00,22.9,21.0,29.06,NNW,337,18.4,36.8,93,0.00,,,0.02,Rainwise IP-100,2013-02-17 16:30:00,
2013-02-17 11:35:00,22.9,21.0,29.06,NNW,337,22.6,35.7,93,0.00,,,0.02,Rainwise IP-100,2013-02-17 16:35:00,
2013-02-17 11:40:00,22.9,21.0,29.02,North,0,22.4,37.3,93,0.06,,,0.03,Rainwise IP-100,2013-02-17 16:40:00,
2013-02-17 11:45:00,23.0,21.0,29.03,North,0,18.9,36.1,92,0.12,,,0.04,Rainwise IP-100,2013-02-17 16:45:00,
2013-02-17 11:50:00,23.1,21.0,29.06,NNE,22,15.9,32.2,92,0.06,,,0.04,Rainwise IP-100,2013-02-17 16:50:00,
2013-02-17 11:55:00,23.1,21.0,29.03,NNW,337,13.8,38.7,93,0.00,,,0.04,Rainwise IP-100,2013-02-17 16:55:00,
2013-02-17 12:00:00,23.1,21.0,29.00,NW,315,31.5,37.5,93,0.24,,,0.08,Rainwise IP-100,2013-02-17 17:00:00,
2013-02-17 12:05:00,23.1,21.0,29.01,North,0,28.2,41.0,92,0.24,,,0.08,Rainwise IP-100,2013-02-17 17:05:00,
2013-02-17 12:10:00,23.1,21.0,29.00,NNW,337,18.0,40.8,92,0.00,,,0.08,Rainwise IP-100,2013-02-17 17:10:00,
2013-02-17 12:15:00,23.1,21.0,28.98,NW,315,34.0,37.8,91,0.06,,,0.09,Rainwise IP-100,2013-02-17 17:15:00,
2013-02-17 12:20:00,23.2,21.0,28.97,NW,315,22.9,38.0,90,0.18,,,0.11,Rainwise IP-100,2013-02-17 17:20:00,
2013-02-17 12:25:00,23.2,21.0,28.96,NNW,337,22.2,39.6,90,0.12,,,0.11,Rainwise IP-100,2013-02-17 17:25:00,
2013-02-17 12:30:00,23.4,21.0,28.97,NW,315,21.2,38.5,90,0.00,,,0.11,Rainwise IP-100,2013-02-17 17:30:00,
2013-02-17 12:35:00,23.6,23.0,28.97,NNW,337,33.6,42.7,90,0.00,,,0.11,Rainwise IP-100,2013-02-17 17:35:00,
2013-02-17 12:40:00,23.7,23.0,28.97,North,0,29.6,40.8,90,0.00,,,0.11,Rainwise IP-100,2013-02-17 17:40:00,
2013-02-17 12:45:00,23.8,23.0,28.95,NNW,337,29.1,42.0,90,0.00,,,0.11,Rainwise IP-100,2013-02-17 17:45:00,
2013-02-17 12:50:00,23.9,23.0,28.99,NNW,337,26.3,36.4,90,0.00,,,0.11,Rainwise IP-100,2013-02-17 17:50:00,
2013-02-17 12:55:00,24.0,23.0,28.97,NNW,337,18.4,41.3,90,0.00,,,0.11,Rainwise IP-100,2013-02-17 17:55:00,
2013-02-17 13:00:00,23.8,23.0,28.97,NNW,337,21.7,33.6,90,0.00,,,0.11,Rainwise IP-100,2013-02-17 18:00:00,
2013-02-17 13:05:00,23.6,23.0,28.97,NNW,337,21.2,33.1,91,0.00,,,0.11,Rainwise IP-100,2013-02-17 18:05:00,
2013-02-17 13:10:00,23.4,21.0,28.96,North,0,24.0,40.8,91,0.00,,,0.11,Rainwise IP-100,2013-02-17 18:10:00,
2013-02-17 13:15:00,23.3,21.0,28.99,NNW,337,23.8,38.7,91,0.00,,,0.11,Rainwise IP-100,2013-02-17 18:15:00,
2013-02-17 13:20:00,23.2,21.0,28.97,NW,315,22.4,37.8,91,0.00,,,0.11,Rainwise IP-100,2013-02-17 18:20:00,
2013-02-17 13:25:00,23.1,21.0,28.93,NNW,337,26.3,33.6,91,0.00,,,0.11,Rainwise IP-100,2013-02-17 18:25:00,
2013-02-17 13:30:00,23.0,21.0,28.96,NNW,337,25.2,37.8,91,0.00,,,0.11,Rainwise IP-100,2013-02-17 18:30:00,
2013-02-17 13:35:00,23.0,21.0,28.94,NW,315,26.6,34.0,91,0.00,,,0.11,Rainwise IP-100,2013-02-17 18:35:00,
2013-02-17 13:40:00,23.0,21.0,28.95,NNW,337,38.0,38.0,91,0.00,,,0.11,Rainwise IP-100,2013-02-17 18:40:00,
2013-02-17 13:45:00,23.0,21.0,28.93,NNW,337,27.3,42.7,91,0.00,,,0.11,Rainwise IP-100,2013-02-17 18:45:00,
2013-02-17 13:50:00,23.0,21.0,28.94,NNW,337,24.9,42.9,91,0.00,,,0.11,Rainwise IP-100,2013-02-17 18:50:00,
2013-02-17 13:55:00,23.0,21.0,28.93,NNW,337,23.6,34.3,91,0.00,,,0.11,Rainwise IP-100,2013-02-17 18:55:00,
2013-02-17 14:00:00,23.0,21.0,28.94,NW,315,31.9,43.6,91,0.00,,,0.11,Rainwise IP-100,2013-02-17 19:00:00,
2013-02-17 14:05:00,23.0,21.0,28.93,North,0,17.5,42.4,90,0.00,,,0.11,Rainwise IP-100,2013-02-17 19:05:00,
2013-02-17 14:10:00,23.1,21.0,28.95,NW,315,25.6,38.9,91,0.00,,,0.11,Rainwise IP-100,2013-02-17 19:10:00,
2013-02-17 14:15:00,23.1,21.0,28.95,NNW,337,31.9,38.9,91,0.00,,,0.11,Rainwise IP-100,2013-02-17 19:15:00,
2013-02-17 14:20:00,23.1,21.0,28.94,NNW,337,35.0,39.9,91,0.00,,,0.11,Rainwise IP-100,2013-02-17 19:20:00,
2013-02-17 14:25:00,23.1,21.0,28.93,NNW,337,31.7,38.2,91,0.00,,,0.11,Rainwise IP-100,2013-02-17 19:25:00,
2013-02-17 14:30:00,23.1,21.0,28.94,North,0,21.7,37.8,91,0.00,,,0.11,Rainwise IP-100,2013-02-17 19:30:00,
2013-02-17 14:35:00,23.1,21.0,28.94,NNW,337,28.9,38.7,92,0.00,,,0.11,Rainwise IP-100,2013-02-17 19:35:00,
2013-02-17 14:40:00,23.1,21.0,28.94,NW,315,21.7,43.1,92,0.00,,,0.11,Rainwise IP-100,2013-02-17 19:40:00,
2013-02-17 14:45:00,23.1,21.0,28.95,NNW,337,30.3,40.6,92,0.00,,,0.11,Rainwise IP-100,2013-02-17 19:45:00,
2013-02-17 14:50:00,23.1,21.0,28.91,NNW,337,27.7,44.1,92,0.00,,,0.11,Rainwise IP-100,2013-02-17 19:50:00,
2013-02-17 14:55:00,23.0,21.0,28.91,NW,315,19.1,42.9,92,0.00,,,0.11,Rainwise IP-100,2013-02-17 19:55:00,
2013-02-17 15:00:00,23.2,21.0,28.93,NNW,337,32.9,45.0,92,0.00,,,0.11,Rainwise IP-100,2013-02-17 20:00:00,
2013-02-17 15:05:00,23.3,21.0,28.97,NW,315,20.3,42.9,93,0.00,,,0.11,Rainwise IP-100,2013-02-17 20:05:00,
2013-02-17 15:10:00,23.1,21.0,28.94,NNW,337,23.6,30.8,93,0.00,,,0.11,Rainwise IP-100,2013-02-17 20:10:00,
2013-02-17 15:15:00,22.9,21.0,28.95,NNW,337,26.6,40.3,94,0.00,,,0.11,Rainwise IP-100,2013-02-17 20:15:00,
2013-02-17 15:20:00,23.0,21.0,28.96,NNW,337,13.3,37.8,94,0.00,,,0.11,Rainwise IP-100,2013-02-17 20:20:00,
2013-02-17 15:25:00,22.9,21.0,28.96,NW,315,30.3,35.7,94,0.00,,,0.11,Rainwise IP-100,2013-02-17 20:25:00,
2013-02-17 15:30:00,22.9,21.0,28.95,NNW,337,31.7,37.3,94,0.00,,,0.11,Rainwise IP-100,2013-02-17 20:30:00,
2013-02-17 15:35:00,22.9,21.0,28.96,NNW,337,16.1,40.1,94,0.00,,,0.11,Rainwise IP-100,2013-02-17 20:35:00,
2013-02-17 15:40:00,23.0,21.0,28.94,NW,315,29.8,37.3,94,0.00,,,0.11,Rainwise IP-100,2013-02-17 20:40:00,
2013-02-17 15:45:00,23.1,21.0,28.95,NNE,22,21.2,33.6,94,0.00,,,0.11,Rainwise IP-100,2013-02-17 20:45:00,
2013-02-17 15:50:00,23.1,21.0,28.97,NNW,337,15.4,35.4,94,0.00,,,0.11,Rainwise IP-100,2013-02-17 20:50:00,
2013-02-17 15:55:00,22.9,21.0,28.94,NNW,337,17.7,34.7,94,0.00,,,0.11,Rainwise IP-100,2013-02-17 20:55:00,
2013-02-17 16:00:00,22.9,21.0,28.96,NNW,337,27.3,37.3,94,0.00,,,0.11,Rainwise IP-100,2013-02-17 21:00:00,
2013-02-17 16:05:00,22.9,21.0,28.94,NW,315,20.5,41.5,94,0.00,,,0.11,Rainwise IP-100,2013-02-17 21:05:00,
2013-02-17 16:10:00,22.9,21.0,28.91,NNW,337,17.7,48.0,93,0.00,,,0.11,Rainwise IP-100,2013-02-17 21:10:00,
2013-02-17 16:15:00,22.9,21.0,28.92,NW,315,17.7,34.7,93,0.00,,,0.11,Rainwise IP-100,2013-02-17 21:15:00,
2013-02-17 16:20:00,22.9,21.0,28.94,NNW,337,16.8,35.4,93,0.00,,,0.11,Rainwise IP-100,2013-02-17 21:20:00,
2013-02-17 16:25:00,22.9,21.0,28.97,NNW,337,23.8,38.9,93,0.00,,,0.11,Rainwise IP-100,2013-02-17 21:25:00,
2013-02-17 16:30:00,23.0,21.0,28.95,WNW,292,15.6,36.1,92,0.00,,,0.11,Rainwise IP-100,2013-02-17 21:30:00,
2013-02-17 16:35:00,23.0,21.0,28.96,NNW,337,32.4,37.1,92,0.00,,,0.11,Rainwise IP-100,2013-02-17 21:35:00,
2013-02-17 16:40:00,23.0,21.0,28.94,NW,315,23.6,32.6,92,0.00,,,0.11,Rainwise IP-100,2013-02-17 21:40:00,
2013-02-17 16:45:00,22.9,21.0,28.95,NNW,337,12.4,35.0,91,0.00,,,0.11,Rainwise IP-100,2013-02-17 21:45:00,
2013-02-17 16:50:00,22.7,21.0,28.94,NNW,337,28.7,30.5,91,0.00,,,0.11,Rainwise IP-100,2013-02-17 21:50:00,
2013-02-17 16:55:00,22.3,21.0,28.97,NNW,337,5.6,32.9,91,0.00,,,0.11,Rainwise IP-100,2013-02-17 21:55:00,
2013-02-17 17:00:00,21.9,21.0,28.96,NNW,337,17.7,35.7,91,0.00,,,0.11,Rainwise IP-100,2013-02-17 22:00:00,
2013-02-17 17:05:00,21.5,21.0,28.96,North,0,17.3,35.0,90,0.00,,,0.11,Rainwise IP-100,2013-02-17 22:05:00,
2013-02-17 17:10:00,21.2,18.0,28.98,NW,315,22.4,35.2,90,0.00,,,0.11,Rainwise IP-100,2013-02-17 22:10:00,
2013-02-17 17:15:00,21.1,18.0,28.99,NNW,337,24.2,32.6,91,0.00,,,0.11,Rainwise IP-100,2013-02-17 22:15:00,
2013-02-17 17:20:00,21.0,18.0,28.98,WNW,292,7.2,35.7,91,0.00,,,0.11,Rainwise IP-100,2013-02-17 22:20:00,
2013-02-17 17:25:00,20.9,18.0,29.00,NNW,337,27.3,32.6,91,0.00,,,0.11,Rainwise IP-100,2013-02-17 22:25:00,
2013-02-17 17:30:00,20.9,18.0,28.96,NW,315,29.8,29.8,91,0.00,,,0.11,Rainwise IP-100,2013-02-17 22:30:00,
2013-02-17 17:35:00,20.9,18.0,28.97,NW,315,21.0,30.3,90,0.00,,,0.11,Rainwise IP-100,2013-02-17 22:35:00,
2013-02-17 17:40:00,21.0,18.0,28.99,NW,315,10.3,34.0,90,0.00,,,0.11,Rainwise IP-100,2013-02-17 22:40:00,
2013-02-17 17:45:00,21.0,18.0,28.98,NNW,337,21.0,41.5,90,0.00,,,0.11,Rainwise IP-100,2013-02-17 22:45:00,
2013-02-17 17:50:00,20.8,18.0,28.99,NNW,337,15.4,31.0,90,0.00,,,0.11,Rainwise IP-100,2013-02-17 22:50:00,
2013-02-17 17:55:00,20.9,18.0,29.00,NW,315,21.7,31.5,90,0.00,,,0.11,Rainwise IP-100,2013-02-17 22:55:00,
2013-02-17 18:00:00,21.0,18.0,29.01,NW,315,11.0,35.4,89,0.00,,,0.11,Rainwise IP-100,2013-02-17 23:00:00,
2013-02-17 18:05:00,21.1,18.0,28.97,NNW,337,18.9,37.3,89,0.00,,,0.11,Rainwise IP-100,2013-02-17 23:05:00,
2013-02-17 18:10:00,21.2,18.0,28.99,NNW,337,18.7,31.5,89,0.00,,,0.11,Rainwise IP-100,2013-02-17 23:10:00,
2013-02-17 18:15:00,21.2,18.0,29.00,NW,315,21.5,29.1,90,0.00,,,0.11,Rainwise IP-100,2013-02-17 23:15:00,
2013-02-17 18:20:00,21.4,18.0,28.99,WNW,292,16.8,35.4,89,0.00,,,0.11,Rainwise IP-100,2013-02-17 23:20:00,
2013-02-17 18:25:00,21.4,18.0,28.98,NNW,337,20.1,42.4,89,0.00,,,0.11,Rainwise IP-100,2013-02-17 23:25:00,
2013-02-17 18:30:00,21.5,21.0,29.00,WNW,292,12.6,33.1,89,0.00,,,0.11,Rainwise IP-100,2013-02-17 23:30:00,
2013-02-17 18:35:00,21.6,21.0,29.02,NNW,337,10.0,45.9,88,0.00,,,0.11,Rainwise IP-100,2013-02-17 23:35:00,
2013-02-17 18:40:00,21.6,21.0,29.01,NW,315,14.5,37.3,88,0.00,,,0.11,Rainwise IP-100,2013-02-17 23:40:00,
2013-02-17 18:45:00,21.5,21.0,29.02,NW,315,27.5,37.1,89,0.00,,,0.11,Rainwise IP-100,2013-02-17 23:45:00,
2013-02-17 18:50:00,21.4,18.0,29.04,NNW,337,13.3,36.1,89,0.00,,,0.11,Rainwise IP-100,2013-02-17 23:50:00,
2013-02-17 18:55:00,21.3,18.0,29.03,NW,315,17.3,33.1,89,0.00,,,0.11,Rainwise IP-100,2013-02-17 23:55:00,
2013-02-17 19:00:00,21.2,18.0,29.04,NNW,337,10.7,37.8,89,0.00,,,0.11,Rainwise IP-100,2013-02-18 00:00:00,
2013-02-17 19:05:00,21.2,18.0,29.04,WNW,292,11.0,33.3,88,0.00,,,0.11,Rainwise IP-100,2013-02-18 00:05:00,
2013-02-17 19:10:00,21.1,18.0,29.02,NNW,337,19.4,40.1,87,0.00,,,0.11,Rainwise IP-100,2013-02-18 00:10:00,
2013-02-17 19:15:00,21.1,18.0,29.02,NNW,337,18.9,37.1,87,0.00,,,0.11,Rainwise IP-100,2013-02-18 00:15:00,
2013-02-17 19:20:00,21.0,18.0,29.04,NNW,337,17.3,31.2,87,0.00,,,0.11,Rainwise IP-100,2013-02-18 00:20:00,
2013-02-17 19:25:00,20.8,18.0,29.03,WNW,292,30.3,30.3,87,0.00,,,0.11,Rainwise IP-100,2013-02-18 00:25:00,
2013-02-17 19:30:00,20.6,18.0,29.05,NNW,337,21.9,33.6,87,0.00,,,0.11,Rainwise IP-100,2013-02-18 00:30:00,
2013-02-17 19:35:00,20.4,16.0,29.03,NNW,337,21.9,33.3,86,0.00,,,0.11,Rainwise IP-100,2013-02-18 00:35:00,
2013-02-17 19:40:00,20.2,16.0,29.03,WNW,292,25.9,32.2,86,0.00,,,0.11,Rainwise IP-100,2013-02-18 00:40:00,
2013-02-17 19:45:00,20.2,16.0,29.05,WNW,292,9.8,35.2,86,0.00,,,0.11,Rainwise IP-100,2013-02-18 00:45:00,
2013-02-17 19:50:00,20.2,18.0,29.04,NW,315,8.2,38.7,87,0.00,,,0.11,Rainwise IP-100,2013-02-18 00:50:00,
2013-02-17 19:55:00,20.1,16.0,29.07,NNW,337,22.9,33.6,86,0.00,,,0.11,Rainwise IP-100,2013-02-18 00:55:00,
2013-02-17 20:00:00,20.0,16.0,29.07,NNW,337,19.8,33.3,85,0.00,,,0.11,Rainwise IP-100,2013-02-18 01:00:00,
2013-02-17 20:05:00,20.0,16.0,29.05,NNW,337,12.4,34.5,85,0.00,,,0.11,Rainwise IP-100,2013-02-18 01:05:00,
2013-02-17 20:10:00,20.0,16.0,29.05,NNW,337,10.5,36.1,85,0.00,,,0.11,Rainwise IP-100,2013-02-18 01:10:00,
2013-02-17 20:15:00,20.0,16.0,29.08,NW,315,24.2,37.1,84,0.00,,,0.11,Rainwise IP-100,2013-02-18 01:15:00,
2013-02-17 20:20:00,20.0,16.0,29.07,North,0,17.3,35.9,82,0.00,,,0.11,Rainwise IP-100,2013-02-18 01:20:00,
2013-02-17 20:25:00,20.1,16.0,29.06,NNW,337,17.3,33.3,81,0.00,,,0.11,Rainwise IP-100,2013-02-18 01:25:00,
2013-02-17 20:30:00,20.1,16.0,29.11,WNW,292,8.4,35.9,80,0.00,,,0.11,Rainwise IP-100,2013-02-18 01:30:00,
2013-02-17 20:35:00,20.1,16.0,29.09,NW,315,16.8,36.8,79,0.00,,,0.11,Rainwise IP-100,2013-02-18 01:35:00,
2013-02-17 20:40:00,20.1,16.0,29.08,NNW,337,26.8,28.2,78,0.00,,,0.11,Rainwise IP-100,2013-02-18 01:40:00,
2013-02-17 20:45:00,20.2,14.0,29.09,NNW,337,21.2,46.6,76,0.00,,,0.11,Rainwise IP-100,2013-02-18 01:45:00,
2013-02-17 20:50:00,20.2,14.0,29.11,NNW,337,19.6,34.7,75,0.00,,,0.11,Rainwise IP-100,2013-02-18 01:50:00,
2013-02-17 20:55:00,20.3,14.0,29.09,NW,315,19.4,35.7,74,0.00,,,0.11,Rainwise IP-100,2013-02-18 01:55:00,
2013-02-17 21:00:00,20.5,14.0,29.10,NW,315,27.7,41.0,73,0.00,,,0.11,Rainwise IP-100,2013-02-18 02:00:00,
2013-02-17 21:05:00,20.6,14.0,29.09,NNW,337,16.3,31.5,72,0.00,,,0.11,Rainwise IP-100,2013-02-18 02:05:00,
2013-02-17 21:10:00,20.7,14.0,29.11,NW,315,8.4,38.7,72,0.00,,,0.11,Rainwise IP-100,2013-02-18 02:10:00,
2013-02-17 21:15:00,20.7,14.0,29.10,WNW,292,18.9,24.9,72,0.00,,,0.11,Rainwise IP-100,2013-02-18 02:15:00,
2013-02-17 21:20:00,20.5,14.0,29.11,NNW,337,15.9,25.6,71,0.00,,,0.11,Rainwise IP-100,2013-02-18 02:20:00,
2013-02-17 21:25:00,20.3,14.0,29.10,NNW,337,14.9,30.3,71,0.00,,,0.11,Rainwise IP-100,2013-02-18 02:25:00,
2013-02-17 21:30:00,20.2,14.0,29.09,WNW,292,24.0,31.7,71,0.00,,,0.11,Rainwise IP-100,2013-02-18 02:30:00,
2013-02-17 21:35:00,20.0,14.0,29.13,NW,315,18.2,35.9,72,0.00,,,0.11,Rainwise IP-100,2013-02-18 02:35:00,
2013-02-17 21:40:00,19.9,14.0,29.11,WNW,292,13.1,33.3,72,0.00,,,0.11,Rainwise IP-100,2013-02-18 02:40:00,
2013-02-17 21:45:00,19.7,14.0,29.12,NW,315,20.5,36.4,73,0.00,,,0.11,Rainwise IP-100,2013-02-18 02:45:00,
2013-02-17 21:50:00,19.6,14.0,29.13,NNW,337,19.6,38.0,73,0.00,,,0.11,Rainwise IP-100,2013-02-18 02:50:00,
2013-02-17 21:55:00,19.6,14.0,29.14,NNW,337,11.9,29.4,73,0.00,,,0.11,Rainwise IP-100,2013-02-18 02:55:00,
2013-02-17 22:00:00,19.7,14.0,29.11,WNW,292,15.6,33.8,73,0.00,,,0.11,Rainwise IP-100,2013-02-18 03:00:00,
2013-02-17 22:05:00,19.8,14.0,29.13,NNW,337,23.6,37.8,72,0.00,,,0.11,Rainwise IP-100,2013-02-18 03:05:00,
2013-02-17 22:10:00,19.8,14.0,29.13,NNW,337,12.4,39.9,72,0.00,,,0.11,Rainwise IP-100,2013-02-18 03:10:00,
2013-02-17 22:15:00,19.8,14.0,29.13,NNW,337,29.4,33.1,72,0.00,,,0.11,Rainwise IP-100,2013-02-18 03:15:00,
2013-02-17 22:20:00,19.8,14.0,29.12,North,0,14.9,36.8,72,0.00,,,0.11,Rainwise IP-100,2013-02-18 03:20:00,
2013-02-17 22:25:00,19.8,14.0,29.15,NW,315,18.4,45.7,71,0.00,,,0.11,Rainwise IP-100,2013-02-18 03:25:00,
2013-02-17 22:30:00,19.7,14.0,29.13,NW,315,11.7,29.4,71,0.00,,,0.11,Rainwise IP-100,2013-02-18 03:30:00,
2013-02-17 22:35:00,19.6,14.0,29.12,WNW,292,10.3,41.3,72,0.00,,,0.11,Rainwise IP-100,2013-02-18 03:35:00,
2013-02-17 22:40:00,19.5,14.0,29.15,NNW,337,21.2,23.1,72,0.00,,,0.11,Rainwise IP-100,2013-02-18 03:40:00,
2013-02-17 22:45:00,19.4,14.0,29.14,NNW,337,16.3,35.9,72,0.00,,,0.11,Rainwise IP-100,2013-02-18 03:45:00,
2013-02-17 22:50:00,19.5,14.0,29.16,WNW,292,10.5,31.2,72,0.00,,,0.11,Rainwise IP-100,2013-02-18 03:50:00,
2013-02-17 22:55:00,19.5,14.0,29.16,NW,315,29.8,29.8,72,0.00,,,0.11,Rainwise IP-100,2013-02-18 03:55:00,
2013-02-17 23:00:00,19.4,14.0,29.17,North,0,14.5,42.2,71,0.00,,,0.11,Rainwise IP-100,2013-02-18 04:00:00,
2013-02-17 23:05:00,19.4,14.0,29.17,WNW,292,16.8,34.0,71,0.00,,,0.11,Rainwise IP-100,2013-02-18 04:05:00,
2013-02-17 23:10:00,19.3,14.0,29.17,WNW,292,12.6,32.2,71,0.00,,,0.11,Rainwise IP-100,2013-02-18 04:10:00,
2013-02-17 23:15:00,19.3,14.0,29.18,NW,315,6.1,30.3,72,0.00,,,0.11,Rainwise IP-100,2013-02-18 04:15:00,
2013-02-17 23:20:00,19.3,14.0,29.17,NW,315,7.9,34.7,72,0.00,,,0.11,Rainwise IP-100,2013-02-18 04:20:00,
2013-02-17 23:25:00,19.2,14.0,29.20,WNW,292,13.5,29.6,73,0.00,,,0.11,Rainwise IP-100,2013-02-18 04:25:00,
2013-02-17 23:30:00,19.1,14.0,29.21,NW,315,7.2,29.8,74,0.00,,,0.11,Rainwise IP-100,2013-02-18 04:30:00,
2013-02-17 23:35:00,19.0,14.0,29.17,WNW,292,21.9,28.9,74,0.00,,,0.11,Rainwise IP-100,2013-02-18 04:35:00,
2013-02-17 23:40:00,19.0,14.0,29.21,NW,315,9.3,29.8,73,0.00,,,0.11,Rainwise IP-100,2013-02-18 04:40:00,
2013-02-17 23:45:00,19.0,14.0,29.20,WNW,292,8.2,23.6,73,0.00,,,0.11,Rainwise IP-100,2013-02-18 04:45:00,
2013-02-17 23:50:00,18.9,14.0,29.21,WNW,292,11.9,30.5,73,0.00,,,0.11,Rainwise IP-100,2013-02-18 04:50:00,
2013-02-17 23:55:00,18.9,14.0,29.21,NW,315,10.7,25.4,73,0.00,,,0.11,Rainwise IP-100,2013-02-18 04:55:00,